"2010-11-06 00:00:00",311341,4.995,150.9,0.8,0.075,17.47,107.0518,17.33,18.23,13.79,0,110.6,13.24,18.14,112.9
"2010-11-06 00:00:30",311342,5.037,151.1,0.527,0.064,17.51,107.0542,17.33,18.23,13.79,0,110.6,13.24,18.15,113.1
"2010-11-06 00:01:00",311343,5.078,150.3,0.66,0.071,17.52,107.0575,17.34,18.23,13.78,0,110.6,13.24,18.16,112.3
"2010-11-06 00:01:30",311344,4.904,150.1,1.251,0.087,17.45,107.0596,17.35,18.21,13.8,0,110.6,13.24,18.16,112.1
"2010-11-06 00:02:00",311345,4.934,149.7,0.913,0.065,17.44,107.0608,17.35,18.2,13.78,0,110.6,13.25,18.16,111.7
"2010-11-06 00:02:30",311346,4.94,150.1,0.744,0.057,17.47,107.0586,17.35,18.19,13.78,0,110.6,13.25,18.16,112.1
"2010-11-06 00:03:00",311347,4.902,150.7,0.662,0.033,17.5,107.0532,17.33,18.19,13.74,0,110.6,13.25,18.14,112.7
"2010-11-06 00:03:30",311348,4.883,151.1,0.624,0.061,17.53,107.0521,17.33,18.2,13.74,0,110.6,13.25,18.14,113.1
"2010-11-06 00:04:00",311349,5.016,149.9,0.584,0.061,17.42,107.0498,17.32,18.2,13.77,0,110.6,13.25,18.14,111.9
"2010-11-06 00:04:30",311350,5.105,150.9,0.947,0.105,17.49,107.0445,17.31,18.19,13.79,0,110.6,13.25,18.12,112.9
"2010-11-06 00:05:00",311351,5.281,152.2,1.093,0.053,17.58,107.0332,17.28,18.18,13.78,0,110.6,13.25,18.09,114.2
"2010-11-06 00:05:30",311352,5.402,154.5,0.735,0.021,17.54,107.0279,17.27,18.17,13.74,0,110.6,13.25,18.08,116.5
"2010-11-06 00:06:00",311353,5.356,155.3,0.529,0.037,17.53,107.027,17.26,18.17,13.71,0,110.6,13.25,18.08,117.3
"2010-11-06 00:06:30",311354,5.36,155.9,0.228,0.024,17.51,107.027,17.26,18.17,13.68,0,110.6,13.25,18.08,117.9
"2010-11-06 00:07:00",311355,5.416,156,0.234,0.019,17.46,107.027,17.26,18.18,13.67,0,110.6,13.26,18.08,118.0
"2010-11-06 00:07:30",311356,5.432,155,0.759,0.037,17.41,107.027,17.26,18.17,13.68,0,110.6,13.26,18.08,117.0
"2010-11-06 00:08:00",311357,5.464,153.3,0.67,0.047,17.35,107.027,17.26,18.17,13.74,0,110.6,13.26,18.08,115.3
"2010-11-06 00:08:30",311358,5.564,152.6,0.267,0.037,17.41,107.027,17.26,18.16,13.78,0,110.6,13.26,18.08,114.6
"2010-11-06 00:09:00",311359,5.608,152.5,0.583,0.035,17.44,107.0259,17.26,18.14,13.78,0,110.6,13.25,18.07,114.5
"2010-11-06 00:09:30",311360,5.682,152.9,0.453,0.035,17.59,107.0135,17.23,18.14,13.79,0,110.6,13.25,18.04,114.9
"2010-11-06 00:10:00",311361,5.671,152.3,0.58,0.053,17.53,106.9966,17.19,18.13,13.8,0,110.6,13.25,18.00,114.3
"2010-11-06 00:10:30",311362,5.759,151.9,0.491,0.034,17.64,106.9932,17.18,18.13,13.82,0,110.6,13.25,17.99,113.9
"2010-11-06 00:11:00",311363,5.817,150.7,0.402,0.031,17.57,106.9932,17.18,18.11,13.87,0,110.6,13.25,17.99,112.7
"2010-11-06 00:11:30",311364,5.885,150.6,0.194,0.045,17.51,106.9932,17.18,18.1,13.92,0,110.6,13.25,17.99,112.6
"2010-11-06 00:12:00",311365,5.903,150.4,0.299,0.018,17.48,106.9904,17.17,18.09,13.96,0,110.6,13.25,17.98,112.4
"2010-11-06 00:12:30",311366,5.899,150.5,0,0.031,17.46,106.9738,17.13,18.08,14,0,110.6,13.25,17.94,112.5
"2010-11-06 00:13:00",311367,5.82,150.9,0.905,0.043,17.47,106.9615,17.1,18.07,14.04,0,110.6,13.25,17.91,112.9
"2010-11-06 00:13:30",311368,5.941,153.9,1.19,0.034,17.46,106.961,17.1,18.06,14.01,0,110.6,13.25,17.91,115.9
"2010-11-06 00:14:00",311369,5.896,155,1.146,0.052,17.51,106.9646,17.1,18.05,13.99,0,110.6,13.26,17.92,117.0
"2010-11-06 00:14:30",311370,5.774,155.5,0.531,0.057,17.6,106.9694,17.12,18.04,13.96,0,110.6,13.26,17.93,117.5
"2010-11-06 00:15:00",311371,5.726,156,0.02,0.039,17.63,106.9736,17.13,18.05,13.92,0,110.6,13.26,17.94,118.0
"2010-11-06 00:15:30",311372,5.728,157.4,0.673,0.029,17.72,106.9772,17.14,18.04,13.87,0,110.6,13.26,17.95,119.4
"2010-11-06 00:16:00",311373,5.712,158.1,0.516,0.03,17.69,106.9814,17.15,18.04,13.85,0,110.6,13.26,17.96,120.1
"2010-11-06 00:16:30",311374,5.802,158,0.736,0.051,17.55,106.9829,17.15,18.03,13.89,0,110.5,13.26,17.96,120.0
"2010-11-06 00:17:00",311375,5.756,157.9,0.426,0.032,17.59,106.9875,17.16,18.04,13.92,0,110.6,13.26,17.98,119.9
"2010-11-06 00:17:30",311376,5.685,158.8,0.583,0.042,17.71,106.9911,17.17,18.04,13.9,0,110.5,13.26,17.98,120.8
"2010-11-06 00:18:00",311377,5.577,159.7,0.397,0.036,17.71,106.9926,17.18,18.04,13.83,0,110.5,13.26,17.99,121.7
"2010-11-06 00:18:30",311378,5.499,160.3,0.524,0.032,17.58,106.9947,17.18,18.05,13.77,0,110.5,13.26,17.99,122.3
"2010-11-06 00:19:00",311379,5.405,160.7,0.483,0.059,17.53,106.9962,17.19,18.06,13.69,0,110.5,13.26,18.00,122.7
"2010-11-06 00:19:30",311380,5.344,162.1,0.607,0.03,17.55,107.0091,17.22,18.07,13.62,0,110.5,13.26,18.03,124.1
"2010-11-06 00:20:00",311381,5.281,163,0.034,0.003,17.59,107.0235,17.26,18.06,13.54,0,110.5,13.27,18.07,125.0
"2010-11-06 00:20:30",311382,5.258,163.3,0.451,0.03,17.56,107.0294,17.27,18.07,13.5,0,110.5,13.27,18.08,125.3
"2010-11-06 00:21:00",311383,5.318,165.1,0.553,0.044,17.62,107.0294,17.27,18.09,13.46,0,110.5,13.27,18.08,127.1
"2010-11-06 00:21:30",311384,5.29,165.7,0.02,0.046,17.69,107.0294,17.27,18.11,13.47,0,110.5,13.27,18.08,127.7
"2010-11-06 00:22:00",311385,5.143,165.7,0.185,0.046,17.72,107.035,17.29,18.11,13.47,0,110.5,13.27,18.10,127.7
"2010-11-06 00:22:30",311386,5.103,165.4,0.474,0.03,17.68,107.0533,17.33,18.12,13.49,0,110.5,13.27,18.14,127.4
"2010-11-06 00:23:00",311387,5.056,164.6,0.255,0.038,17.67,107.0576,17.34,18.14,13.49,0,110.5,13.27,18.16,126.6
"2010-11-06 00:23:30",311388,4.984,164.5,0.463,0.032,17.69,107.0595,17.35,18.15,13.45,0,110.5,13.27,18.16,126.5
"2010-11-06 00:24:00",311389,5.111,162.2,1.306,0.097,17.55,107.0581,17.34,18.16,13.5,0,110.5,13.27,18.16,124.2
"2010-11-06 00:24:30",311390,5.404,158.1,1.182,0.055,17.31,107.0412,17.3,18.15,13.77,0,110.5,13.27,18.11,120.1
"2010-11-06 00:25:00",311391,5.457,157.6,0.267,0.037,17.37,107.0294,17.27,18.14,13.95,0,110.5,13.27,18.08,119.6
"2010-11-06 00:25:30",311392,5.485,158.5,1.099,0.047,17.52,107.0269,17.26,18.14,13.95,0,110.5,13.26,18.08,120.5
"2010-11-06 00:26:00",311393,5.28,162.6,1.408,0.088,17.44,107.0032,17.2,18.11,13.75,0,110.5,13.26,18.02,124.6
"2010-11-06 00:26:30",311394,5.225,163.7,0.134,0.025,17.48,106.9956,17.18,18.09,13.63,0,110.5,13.26,18.00,125.7
"2010-11-06 00:27:00",311395,5.203,163.7,0.376,0.04,17.48,106.9956,17.18,18.11,13.65,0,110.5,13.26,18.00,125.7
"2010-11-06 00:27:30",311396,5.167,163.1,0.436,0.017,17.49,106.9956,17.18,18.1,13.64,0,110.5,13.26,18.00,125.1
"2010-11-06 00:28:00",311397,5.216,161.3,0.742,0.052,17.39,106.9956,17.18,18.1,13.73,0,110.5,13.26,18.00,123.3
"2010-11-06 00:28:30",311398,5.246,160.1,0.43,0.032,17.32,106.9956,17.18,18.1,13.86,0,110.5,13.26,18.00,122.1
"2010-11-06 00:29:00",311399,5.224,160.9,0.389,0.028,17.43,106.9956,17.18,18.09,13.83,0,110.5,13.26,18.00,122.9
"2010-11-06 00:29:30",311400,5.142,162,0.02,0.042,17.52,106.9956,17.18,18.08,13.78,0,110.5,13.26,18.00,124.0
"2010-11-06 00:30:00",311401,5.147,162,0.037,0.046,17.51,106.9956,17.18,18.06,13.76,0,110.5,13.26,18.00,124.0
"2010-11-06 00:30:30",311402,5.281,162.2,0.434,0.049,17.44,106.9956,17.18,18.07,13.86,0,110.5,13.27,18.00,124.2
"2010-11-06 00:31:00",311403,5.347,162.4,0.502,0.023,17.44,106.9945,17.18,18.07,13.94,0,110.5,13.27,17.99,124.4
"2010-11-06 00:31:30",311404,5.357,162.4,0.488,0.032,17.44,106.9835,17.15,18.06,13.95,0,110.5,13.27,17.96,124.4
"2010-11-06 00:32:00",311405,5.39,162.5,0.492,0.037,17.46,106.9762,17.13,18.05,13.96,0,110.5,13.27,17.95,124.5
"2010-11-06 00:32:30",311406,5.388,162.8,0.454,0.03,17.46,106.9725,17.12,18.04,13.95,0,110.5,13.27,17.94,124.8
"2010-11-06 00:33:00",311407,5.432,162,0.278,0.04,17.48,106.9672,17.11,18.05,13.97,0,110.5,13.27,17.92,124.0
"2010-11-06 00:33:30",311408,5.424,162,0.685,0.012,17.48,106.9633,17.1,18.05,13.99,0,110.5,13.27,17.91,124.0
"2010-11-06 00:34:00",311409,5.344,159.1,0.64,0.052,17.34,106.963,17.1,18.03,14.08,0,110.5,13.27,17.91,121.1
"2010-11-06 00:34:30",311410,5.288,157.8,0.312,0.018,17.32,106.9642,17.1,18.02,14.17,0,110.5,13.27,17.92,119.8
"2010-11-06 00:35:00",311411,5.294,157.7,0.327,0.016,17.31,106.9648,17.11,18.02,14.24,0,110.5,13.27,17.92,119.7
"2010-11-06 00:35:30",311412,5.34,158.5,0.479,0.033,17.31,106.9655,17.11,18.01,14.24,0,110.5,13.27,17.92,120.5
"2010-11-06 00:36:00",311413,5.411,157.4,0.472,0.038,17.37,106.9557,17.08,18,14.26,0,110.5,13.27,17.89,119.4
"2010-11-06 00:36:30",311414,5.424,158.5,0.419,0.017,17.49,106.9382,17.04,17.99,14.28,0,110.5,13.27,17.85,120.5
"2010-11-06 00:37:00",311415,5.416,158.7,0.034,0.034,17.46,106.9367,17.03,17.98,14.29,0,110.5,13.28,17.84,120.7
"2010-11-06 00:37:30",311416,5.432,158.3,0.528,0.033,17.51,106.9398,17.04,17.97,14.31,0,110.5,13.28,17.85,120.3
"2010-11-06 00:38:00",311417,5.487,158.7,0.02,0,17.51,106.9401,17.04,17.95,14.33,0,110.5,13.28,17.85,120.7
"2010-11-06 00:38:30",311418,5.5,158.8,0.268,0.024,17.46,106.9411,17.04,17.95,14.33,0,110.5,13.28,17.86,120.8
"2010-11-06 00:39:00",311419,5.501,159,0.452,0.031,17.46,106.9359,17.03,17.94,14.33,0,110.5,13.28,17.84,121.0
"2010-11-06 00:39:30",311420,5.459,157.4,0.706,0.036,17.43,106.9276,17.01,17.91,14.32,0,110.5,13.28,17.82,119.4
"2010-11-06 00:40:00",311421,5.544,158.8,0.433,0.048,17.42,106.9183,16.99,17.91,14.32,0,110.5,13.28,17.80,120.8
"2010-11-06 00:40:30",311422,5.627,159.8,0.648,0.023,17.43,106.9195,16.99,17.89,14.31,0,110.5,13.28,17.80,121.8
"2010-11-06 00:41:00",311423,5.713,161.9,0.646,0.038,17.37,106.9204,16.99,17.89,14.32,0,110.5,13.28,17.80,123.9
"2010-11-06 00:41:30",311424,5.791,163.5,0.28,0.041,17.46,106.9222,17,17.88,14.35,0,110.5,13.28,17.81,125.5
"2010-11-06 00:42:00",311425,5.812,165.2,0.655,0.03,17.52,106.9243,17,17.88,14.36,0,110.5,13.28,17.81,127.2
"2010-11-06 00:42:30",311426,5.825,165.8,0.199,0.014,17.51,106.9222,17,17.86,14.37,0,110.5,13.28,17.81,127.8
"2010-11-06 00:43:00",311427,5.801,166.2,0.499,0.037,17.52,106.9209,16.99,17.86,14.36,0,110.5,13.28,17.80,128.2
"2010-11-06 00:43:30",311428,5.726,166,0.392,0.029,17.51,106.9079,16.96,17.84,14.39,0,110.5,13.28,17.77,128.0
"2010-11-06 00:44:00",311429,5.775,166.4,0.534,0.031,17.53,106.9055,16.95,17.84,14.44,0,110.5,13.28,17.76,128.4
"2010-11-06 00:44:30",311430,5.679,166.9,0.197,0.034,17.49,106.9033,16.95,17.83,14.57,0,110.5,13.28,17.76,128.9
"2010-11-06 00:45:00",311431,5.626,165.7,0.598,0.059,17.47,106.8974,16.93,17.82,14.56,0,110.5,13.28,17.74,127.7
"2010-11-06 00:45:30",311432,5.636,166.4,0.516,0.062,17.48,106.8966,16.93,17.83,14.58,0,110.5,13.28,17.74,128.4
"2010-11-06 00:46:00",311433,5.656,166.4,0.605,0.058,17.48,106.8966,16.93,17.82,14.56,0,110.5,13.28,17.74,128.4
"2010-11-06 00:46:30",311434,5.66,165.5,0.557,0.035,17.48,106.8966,16.93,17.81,14.51,0,110.5,13.28,17.74,127.5
"2010-11-06 00:47:00",311435,5.731,167,0.915,0.085,17.51,106.8966,16.93,17.8,14.55,0,110.5,13.28,17.74,129.0
"2010-11-06 00:47:30",311436,5.71,166.6,0.449,0.032,17.47,106.8966,16.93,17.8,14.58,0,110.5,13.28,17.74,128.6
"2010-11-06 00:48:00",311437,5.668,165.8,0.196,0.04,17.47,106.8966,16.93,17.79,14.55,0,110.5,13.28,17.74,127.8
"2010-11-06 00:48:30",311438,5.705,165.8,0.02,0.024,17.49,106.8966,16.93,17.8,14.56,0,110.5,13.29,17.74,127.8
"2010-11-06 00:49:00",311439,5.662,166.4,0.518,0.055,17.5,106.8966,16.93,17.8,14.65,0,110.5,13.29,17.74,128.4
"2010-11-06 00:49:30",311440,5.624,165.7,0.264,0.06,17.49,106.8966,16.93,17.8,14.65,0,110.5,13.28,17.74,127.7
"2010-11-06 00:50:00",311441,5.561,166.2,0.504,0.037,17.49,106.8966,16.93,17.79,14.65,0,110.5,13.29,17.74,128.2
"2010-11-06 00:50:30",311442,5.487,167.3,0.505,0.061,17.48,106.8966,16.93,17.78,14.66,0,110.5,13.29,17.74,129.3
"2010-11-06 00:51:00",311443,5.462,167.7,0.43,0.078,17.47,106.8966,16.93,17.78,14.7,0,110.5,13.29,17.74,129.7
"2010-11-06 00:51:30",311444,5.569,167.7,0.457,0.053,17.46,106.8966,16.93,17.78,14.54,0,110.5,13.29,17.74,129.7
"2010-11-06 00:52:00",311445,5.597,168.1,0.416,0.046,17.46,106.8966,16.93,17.78,14.46,0,110.5,13.29,17.74,130.1
"2010-11-06 00:52:30",311446,5.554,169,0.028,0.044,17.49,106.8966,16.93,17.78,14.44,0,110.5,13.29,17.74,131.0
"2010-11-06 00:53:00",311447,5.708,169.2,0.33,0.064,17.45,106.8966,16.93,17.78,14.34,0,110.5,13.29,17.74,131.2
"2010-11-06 00:53:30",311448,5.722,169.3,0.341,0.03,17.45,106.8966,16.93,17.79,14.3,0,110.5,13.29,17.74,131.3
"2010-11-06 00:54:00",311449,5.75,168.9,0.324,0.042,17.38,106.8966,16.93,17.79,14.21,0,110.5,13.29,17.74,130.9
"2010-11-06 00:54:30",311450,5.796,167.7,0.424,0.046,17.38,106.8915,16.92,17.77,14.16,0,110.5,13.29,17.73,129.7
"2010-11-06 00:55:00",311451,5.823,168.3,0.82,0.081,17.43,106.8658,16.85,17.76,14.19,0,110.5,13.29,17.66,130.3
"2010-11-06 00:55:30",311452,5.694,169.7,0.192,0.098,17.48,106.8627,16.84,17.75,14.24,0,110.5,13.29,17.65,131.7
"2010-11-06 00:56:00",311453,5.856,170.5,0.507,0.064,17.47,106.863,16.84,17.75,14.22,0,110.5,13.29,17.65,132.5
"2010-11-06 00:56:30",311454,5.724,170.7,0.052,0.076,17.47,106.8627,16.84,17.74,14.22,0,110.5,13.29,17.65,132.7
"2010-11-06 00:57:00",311455,5.901,171.4,0.524,0.038,17.48,106.8644,16.85,17.76,14.21,0,110.5,13.29,17.66,133.4
"2010-11-06 00:57:30",311456,6.052,171.9,0.264,0.054,17.46,106.8678,16.86,17.76,14.2,0,110.5,13.29,17.67,133.9
"2010-11-06 00:58:00",311457,6.231,172.1,0.49,0.063,17.41,106.8712,16.87,17.74,14.18,0,110.5,13.29,17.68,134.1
"2010-11-06 00:58:30",311458,6.364,172.5,0.646,0.056,17.42,106.867,16.85,17.76,14.1,0,110.5,13.29,17.67,134.5
"2010-11-06 00:59:00",311459,6.417,173.9,0.263,0.052,17.45,106.8687,16.86,17.74,14.11,0,110.5,13.29,17.67,135.9
"2010-11-06 00:59:30",311460,6.471,173.7,0.45,0.058,17.44,106.8732,16.87,17.76,14.12,0,110.5,13.29,17.68,135.7
"2010-11-06 01:00:00",311461,6.443,173.7,0.657,0.046,17.41,106.8718,16.87,17.77,14.11,0,110.5,13.29,17.68,135.7
"2010-11-06 01:00:30",311462,6.502,174.7,0.681,0.056,17.42,106.8664,16.85,17.76,14.13,0,110.5,13.29,17.66,136.7
"2010-11-06 01:01:00",311463,6.616,176.2,0.539,0.049,17.49,106.872,16.87,17.76,14.17,0,110.5,13.28,17.68,138.2
"2010-11-06 01:01:30",311464,6.653,175.8,0.193,0.055,17.48,106.8889,16.91,17.77,14.18,0,110.5,13.29,17.72,137.8
"2010-11-06 01:02:00",311465,6.464,175.1,0.239,0.067,17.43,106.8918,16.92,17.77,14.18,0,110.5,13.29,17.73,137.1
"2010-11-06 01:02:30",311466,6.226,176.9,1.689,0.099,17.49,106.8951,16.93,17.77,14.17,0,110.5,13.29,17.74,138.9
"2010-11-06 01:03:00",311467,6.308,172.7,1.894,0.185,17.52,106.8966,16.93,17.79,14.25,0,110.5,13.29,17.74,134.7
"2010-11-06 01:03:30",311468,6.595,175,0.386,0.086,17.4,106.8966,16.93,17.78,14.21,0,110.5,13.29,17.74,137.0
"2010-11-06 01:04:00",311469,6.756,175.3,0.329,0.089,17.43,106.8966,16.93,17.79,14.13,0,110.5,13.29,17.74,137.3
"2010-11-06 01:04:30",311470,6.964,175.4,0.349,0.042,17.35,106.8951,16.93,17.79,14.08,0,110.5,13.29,17.74,137.4
"2010-11-06 01:05:00",311471,6.93,176.1,0.515,0.06,17.4,106.8861,16.9,17.76,14.12,0,110.5,13.29,17.71,138.1
"2010-11-06 01:05:30",311472,6.847,177.1,0.475,0.048,17.45,106.8751,16.88,17.77,14.16,0,110.5,13.29,17.69,139.1
"2010-11-06 01:06:00",311473,6.926,177.6,0.449,0.077,17.43,106.8729,16.87,17.77,14.12,0,110.5,13.29,17.68,139.6
"2010-11-06 01:06:30",311474,6.922,178.3,0.532,0.061,17.43,106.8695,16.86,17.77,14.07,0,110.5,13.29,17.67,140.3
"2010-11-06 01:07:00",311475,6.877,178,0.315,0.045,17.44,106.8678,16.86,17.77,14.09,0,110.5,13.3,17.67,140.0
"2010-11-06 01:07:30",311476,6.956,178.7,0.524,0.088,17.41,106.8636,16.85,17.78,14.06,0,110.5,13.3,17.66,140.7
"2010-11-06 01:08:00",311477,6.941,178.9,0.028,0.071,17.43,106.863,16.84,17.76,14.07,0,110.5,13.3,17.65,140.9
"2010-11-06 01:08:30",311478,7.176,179.4,0.506,0.072,17.37,106.8633,16.84,17.76,14.06,0,110.5,13.3,17.66,141.4
"2010-11-06 01:09:00",311479,7.331,179.9,0,0.062,17.37,106.8639,16.85,17.76,14.1,0,110.5,13.3,17.66,141.9
"2010-11-06 01:09:30",311480,7.353,180.3,0.49,0.055,17.35,106.8643,16.85,17.75,14.08,0,110.5,13.29,17.66,142.3
"2010-11-06 01:10:00",311481,7.377,180.7,0.452,0.061,17.37,106.8661,16.85,17.74,14.1,0,110.5,13.3,17.66,142.7
"2010-11-06 01:10:30",311482,7.471,179.8,0.597,0.101,17.33,106.8622,16.84,17.73,14.03,0,110.5,13.3,17.65,141.8
"2010-11-06 01:11:00",311483,7.516,179.3,0.501,0.074,17.32,106.8421,16.79,17.72,13.95,0,110.5,13.3,17.60,141.3
"2010-11-06 01:11:30",311484,7.366,180,0.316,0.058,17.35,106.8331,16.77,17.7,14.01,0,110.5,13.3,17.58,142.0
"2010-11-06 01:12:00",311485,7.55,179.7,0.293,0.057,17.32,106.8316,16.76,17.7,14.01,0,110.5,13.3,17.57,141.7
"2010-11-06 01:12:30",311486,7.528,179.6,0.421,0.065,17.37,106.8328,16.77,17.68,14.03,0,110.5,13.3,17.58,141.6
"2010-11-06 01:13:00",311487,7.319,179.2,0.464,0.061,17.36,106.8322,16.77,17.67,14.06,0,110.5,13.3,17.58,141.2
"2010-11-06 01:13:30",311488,7.187,178.9,0.251,0.047,17.43,106.8319,16.76,17.68,14.1,0,110.5,13.3,17.57,140.9
"2010-11-06 01:14:00",311489,7.214,178.7,0.4,0.065,17.44,106.8344,16.77,17.68,14.13,0,110.5,13.3,17.58,140.7
"2010-11-06 01:14:30",311490,7.257,178.5,0.505,0.052,17.42,106.837,16.78,17.69,14.11,0,110.5,13.3,17.59,140.5
"2010-11-06 01:15:00",311491,7.24,178.1,0.491,0.043,17.45,106.8441,16.8,17.7,14.1,0,110.5,13.3,17.61,140.1
"2010-11-06 01:15:30",311492,7.298,179.2,0.472,0.049,17.44,106.8551,16.82,17.7,14.11,0,110.5,13.3,17.63,141.2
"2010-11-06 01:16:00",311493,7.331,179.8,0.364,0.079,17.42,106.8633,16.84,17.71,14.11,0,110.5,13.29,17.66,141.8
"2010-11-06 01:16:30",311494,7.447,181,0.609,0.055,17.44,106.8668,16.85,17.71,14.09,0,110.5,13.29,17.66,143.0
"2010-11-06 01:17:00",311495,7.202,182.9,0.734,0.038,17.53,106.8707,16.86,17.71,14.12,0,110.5,13.29,17.67,144.9
"2010-11-06 01:17:30",311496,7.365,183.4,0.636,0.099,17.49,106.8727,16.87,17.72,14.1,0,110.5,13.29,17.68,145.4
"2010-11-06 01:18:00",311497,7.367,188,3.194,0.146,17.6,106.8748,16.87,17.74,14.12,0,110.5,13.29,17.69,150.0
"2010-11-06 01:18:30",311498,7.303,190.5,2.561,0.263,17.75,106.8965,16.93,17.75,14.17,0,110.5,13.29,17.74,152.5
"2010-11-06 01:19:00",311499,6.23,197.2,2.034,0.398,17.69,106.9107,16.97,17.79,14.17,0,110.5,13.29,17.78,159.2
"2010-11-06 01:19:30",311500,5.56,198.1,2.133,0.308,17.68,106.9244,17,17.82,14.15,0,110.5,13.29,17.81,160.1
"2010-11-06 01:20:00",311501,5.103,192.7,4.629,0.268,17.56,106.9442,17.05,17.86,14.12,0,110.5,13.29,17.86,154.7
"2010-11-06 01:20:30",311502,5.609,189,4.577,0.294,17.59,106.9475,17.06,17.88,14.08,0,110.5,13.29,17.87,151.0
"2010-11-06 01:21:00",311503,5.562,187.7,2.957,0.248,17.55,106.9527,17.07,17.88,14.07,0,110.5,13.3,17.89,149.7
"2010-11-06 01:21:30",311504,6.365,183.5,2.252,0.22,17.44,106.9493,17.07,17.9,14.02,0,110.5,13.3,17.88,145.5
"2010-11-06 01:22:00",311505,6.465,182.5,0.602,0.093,17.44,106.9475,17.06,17.9,13.99,0,110.5,13.3,17.87,144.5
"2010-11-06 01:22:30",311506,6.096,186.1,3.011,0.226,17.49,106.9514,17.07,17.9,13.98,0,110.5,13.31,17.88,148.1
"2010-11-06 01:23:00",311507,6.324,186.1,2.988,0.19,17.56,106.9489,17.06,17.89,13.99,0,110.5,13.31,17.88,148.1
"2010-11-06 01:23:30",311508,6.669,190,2.174,0.361,17.63,106.9517,17.07,17.89,14,0,110.5,13.31,17.88,152.0
"2010-11-06 01:24:00",311509,6.962,190.1,1.274,0.202,17.54,106.9517,17.07,17.91,13.97,0,110.5,13.31,17.88,152.1
"2010-11-06 01:24:30",311510,7.167,190.7,2.047,0.203,17.57,106.9536,17.08,17.91,13.93,0,110.5,13.31,17.89,152.7
"2010-11-06 01:25:00",311511,6.888,192.2,2.313,0.445,17.59,106.9509,17.07,17.89,13.91,0,110.5,13.31,17.88,154.2
"2010-11-06 01:25:30",311512,7.331,190.6,3.46,0.324,17.55,106.948,17.06,17.89,13.9,0,110.5,13.31,17.87,152.6
"2010-11-06 01:26:00",311513,6.509,192.9,3.791,0.5,17.49,106.9429,17.05,17.91,13.92,0,110.5,13.31,17.86,154.9
"2010-11-06 01:26:30",311514,6.108,194.5,4.3,0.288,17.61,106.9534,17.08,17.9,13.97,0,110.5,13.31,17.89,156.5
"2010-11-06 01:27:00",311515,6.119,196.4,1.721,0.164,17.64,106.9608,17.09,17.91,14,0,110.5,13.31,17.91,158.4
"2010-11-06 01:27:30",311516,6.348,197.2,2.457,0.316,17.49,106.9602,17.09,17.92,13.97,0,110.5,13.31,17.90,159.2
"2010-11-06 01:28:00",311517,6.38,197.7,1.658,0.221,17.45,106.9617,17.1,17.92,13.9,0,110.5,13.31,17.91,159.7
"2010-11-06 01:28:30",311518,6.323,200.2,1.664,0.211,17.6,106.9626,17.1,17.91,14.04,0,110.5,13.31,17.91,162.2
"2010-11-06 01:29:00",311519,6.16,197,5.075,0.388,17.53,106.9626,17.1,17.93,14.08,0,110.5,13.31,17.91,159.0
"2010-11-06 01:29:30",311520,6.372,199.8,3.899,0.336,17.46,106.9644,17.1,17.93,14.01,0,110.5,13.31,17.92,161.8
"2010-11-06 01:30:00",311521,5.863,197.7,4.376,0.331,17.46,106.965,17.11,17.95,14.05,0,110.5,13.31,17.92,159.7
"2010-11-06 01:30:30",311522,4.655,200,6.075,1.49,17.74,106.9698,17.12,17.95,14.22,0,110.5,13.31,17.93,162.0
"2010-11-06 01:31:00",311523,2.381,227.5,10.75,0.606,17.67,106.9981,17.19,17.98,14.38,0,110.5,13.31,18.00,189.5
"2010-11-06 01:31:30",311524,2.615,222.6,12,0.639,17.8,107.0135,17.23,18.02,14.42,0,110.5,13.31,18.04,184.6
"2010-11-06 01:32:00",311525,2.061,195.2,14.03,0.6,17.77,107.0353,17.29,18.05,14.48,0,110.5,13.31,18.10,157.2
"2010-11-06 01:32:30",311526,3.728,188.6,7.251,1.008,17.78,107.0629,17.36,18.1,14.44,0,110.5,13.3,18.17,150.6
"2010-11-06 01:33:00",311527,5.39,205.3,8.1,0.643,17.6,107.0677,17.37,18.12,14.26,0,110.5,13.3,18.18,167.3
"2010-11-06 01:33:30",311528,3.587,180.9,25.65,0.543,17.74,107.068,17.37,18.14,14.4,0,110.5,13.3,18.18,142.9
"2010-11-06 01:34:00",311529,3.457,206,13.58,0.904,17.58,107.068,17.37,18.16,14.33,0,110.5,13.3,18.18,168.0
"2010-11-06 01:34:30",311530,4.704,205.7,4.047,0.198,17.46,107.068,17.37,18.17,14.11,0,110.5,13.3,18.18,167.7
"2010-11-06 01:35:00",311531,4.23,215.3,7.982,0.37,17.62,107.068,17.37,18.16,14.22,0,110.5,13.3,18.18,177.3
"2010-11-06 01:35:30",311532,3.216,238.1,12.94,0.412,17.63,107.068,17.37,18.17,14.32,0,110.5,13.3,18.18,200.1
"2010-11-06 01:36:00",311533,3.296,261.8,5.441,0.434,17.72,107.068,17.37,18.19,14.5,0,110.5,13.3,18.18,223.8
"2010-11-06 01:36:30",311534,3.661,254,6.455,0.509,17.67,107.068,17.37,18.19,14.54,0,110.5,13.3,18.18,216.0
"2010-11-06 01:37:00",311535,3.333,256.6,7.386,0.309,17.68,107.0691,17.37,18.2,14.57,0,110.5,13.3,18.19,218.6
"2010-11-06 01:37:30",311536,4.49,246.1,8.07,0.518,17.64,107.0705,17.38,18.22,14.54,0,110.5,13.3,18.19,208.1
"2010-11-06 01:38:00",311537,4.097,219.5,11.87,0.831,17.47,107.068,17.37,18.21,14.38,0,110.5,13.31,18.18,181.5
"2010-11-06 01:38:30",311538,4.021,207,9.5,0.965,17.47,107.068,17.37,18.2,14.36,0,110.5,13.31,18.18,169.0
"2010-11-06 01:39:00",311539,5.238,225.3,7.349,0.487,17.54,107.0601,17.35,18.2,14.27,0,110.5,13.31,18.16,187.3
"2010-11-06 01:39:30",311540,5.222,215.9,4.564,0.456,17.43,107.0401,17.3,18.18,14.22,0,110.5,13.31,18.11,177.9
"2010-11-06 01:40:00",311541,5.344,215.2,6.913,0.652,17.45,107.0342,17.28,18.16,14.2,0,110.5,13.31,18.10,177.2
"2010-11-06 01:40:30",311542,4.418,226.3,4.141,0.339,17.44,107.0342,17.28,18.14,14.31,0,110.5,13.31,18.10,188.3
"2010-11-06 01:41:00",311543,5.208,225.8,4.87,0.455,17.45,107.0265,17.26,18.13,14.31,0,110.5,13.31,18.08,187.8
"2010-11-06 01:41:30",311544,5.774,223.8,8.33,0.304,17.42,107.0051,17.21,18.11,14.29,0,110.5,13.31,18.02,185.8
"2010-11-06 01:42:00",311545,4.386,215.5,6.319,0.505,17.33,107.0003,17.2,18.09,14.07,0,110.5,13.31,18.01,177.5
"2010-11-06 01:42:30",311546,4.675,228.6,4.882,0.238,17.5,107.0003,17.2,18.08,14.27,0,110.5,13.31,18.01,190.6
"2010-11-06 01:43:00",311547,4.168,237.9,3.21,0.237,17.55,107.0003,17.2,18.06,14.52,0,110.5,13.31,18.01,199.9
"2010-11-06 01:43:30",311548,3.927,228.9,5.538,0.442,17.55,107.0003,17.2,18.07,14.68,0,110.5,13.31,18.01,190.9
"2010-11-06 01:44:00",311549,5.096,212.4,3.306,0.501,17.44,107.0003,17.2,18.07,14.41,0,110.5,13.31,18.01,174.4
"2010-11-06 01:44:30",311550,4.951,225.3,10.79,0.528,17.42,107.0003,17.2,18.07,14.31,0,110.5,13.31,18.01,187.3
"2010-11-06 01:45:00",311551,5.583,233.4,8.32,0.71,17.51,107.0003,17.2,18.06,14.44,0,110.5,13.31,18.01,195.4
"2010-11-06 01:45:30",311552,3.847,240.1,15.83,0.477,17.6,107.0003,17.2,18.05,15.3,0,110.5,13.31,18.01,202.1
"2010-11-06 01:46:00",311553,4.849,227.8,6.485,0.524,17.39,107.0003,17.2,18.05,14.44,0,110.5,13.31,18.01,189.8
"2010-11-06 01:46:30",311554,4.01,231.4,9.36,0.422,17.42,106.9975,17.19,18.06,14.43,0,110.5,13.31,18.00,193.4
"2010-11-06 01:47:00",311555,4.678,236.4,9.91,0.345,17.45,106.9924,17.18,18.05,14.63,0,110.5,13.31,17.99,198.4
"2010-11-06 01:47:30",311556,3.848,245.7,6.808,0.403,17.46,106.9885,17.17,18.02,14.95,0,110.5,13.32,17.98,207.7
"2010-11-06 01:48:00",311557,4.11,238.5,10.48,0.739,17.55,106.9902,17.17,18.03,15.47,0,110.5,13.31,17.98,200.5